Location: *
(50.2903°S, 172.5375°W)
Time: 10:17:31
(UTC+00:00)

FALCON 9 DEB - Pass Details

Date: 17 November 2019
Orbit: 259 x 273 km, 53.0° (Epoch: 05 December)

Event Time Altitude Azimuth Distance (km) Brightness Sun altitude
Exits shadow 14:42:23 10° 313° (NW) 1,080 4.4 -7.1°
Maximum altitude 14:42:33 10° 317° (NW) 1,076 4.4 -7.0°
Drops below altitude 10° 14:43:01 10° 328° (NNW) 1,093 4.5 -7.0°
Sets 14:46:07 0° 14° (NNE) 1,883 6.1 -6.6°
